Funds performance table by strategy

help icon
fund name 1 mth 3 mth 12 mth ytdsort icon Inception Net assets Return Date
CSIF Emerging Markets Index Blue Z 0% -2% 7% 10% 0% 3860M 2014-11-30
Deka-GlobalOpportunities Plus I (A) 1% 0% 10% 10% 5% - 2014-11-30
T. Rowe Price Asian ex-Japan Eq I 0% -1% 10% 10% 8% 939M 2014-11-30
Voya Mortgage Investment Fund 1% 2% 12% 10% 18% 668M 2014-11-30
UBS ETF (IE) MSCI Canada SF 1% -4% 13% 10% 0% 76M 2014-11-30
JHancock Disciplined Value R6 2% 3% 14% 10% 21% - 2014-11-30
NewFunds ILBI ETF 0% 2% 12% 10% 10% 66M 2014-11-30
Fidelity Asian Equity I-Acc-SGD 2% 1% 11% 10% 5% 933M 2014-11-30
Cullen NA Hi Div Val Eq USD Instl A Acc 2% 2% 12% 10% 13% 867M 2014-11-30
BMO S&P/TSX Capped Composite ETF 1% -4% 13% 10% 8% 1315M 2014-11-30
China Eagle Fund 0% 1% 14% 10% 11% - 2014-10-31
CFS FC W Pen-Platinum W Asia 1% 6% 29% 10% 5% 12M 2013-07-31
GS Glbl CORE Equity I USD Close Acc 2% 0% 13% 10% 5% 361M 2014-11-30
GS Glbl CORE Equity I Close Inc 2% 0% 13% 10% 5% 361M 2014-11-30
BlackRock Large Cap Core Instl 1% 2% 14% 10% 6% - 2014-11-30
Bay Capital Dynamic Allocation -1% -1% 8% 10% 4% - 2013-09-30
WSTV ESPA progressiv T 4% 4% 10% 10% 4% 62M 2014-11-30
Russell LifePoints All Equity Port Sr E 2% 0% 13% 10% 18% 67M 2014-11-30
SIS Inflation Plus 3-5 FoF B 1% 1% 13% 10% 18% 797M 2014-11-30
UBS (CH) Mgr Sel Bonds Global XT2 X 0% 2% 8% 10% 2% 186M 2014-11-30
Impact Fds Climate Change H-RE/A EUR 0% 2% 9% 10% 0% 48M 2012-10-31
Threadneedle Global Equity Income R4 6% 10% 31% 10% 8% - 2011-04-30
Mercer Global Sovereign Bond Fund 1% 2% 10% 10% 8% 635M 2014-11-30
BNPP Flexi I Tactical Strategy X 2% 3% 8% 10% 5% 103M 2014-11-30
Anima Fund - US Equity I 0% -3% 16% 10% 7% 43M 2012-11-30
H T Funds CTA 3% 7% 12% 10% 12% - 2011-04-30
MiraeAsset RP Chindia SL40 Fdr BdBal 1 C 1% 4% 11% 10% 3% 2350M 2014-11-30
AmericaFirst Defensive Growth I 0% 3% 12% 10% 13% - 2014-11-30
The GLI Fund 2% -1% 16% 10% 0% - 2014-10-31
Coronation Absolute B2 1% 0% 19% 10% 14% 1493M 2013-08-31

All our data is licensed from Morningstar UK Ltd. Important legal information